User: anonymous   Login
Location: Cossonay
(46.5833°N, 6.4167°E)
Time: 16:15:28
(UTC+00:00)
Language:

STARLINK-1257 - Orbit

View from above orbital plane
View from above orbital plane
View from above satellite
View from above satellite

Ground track
Ground track

The orbit data is extracted from the following two-line orbital elements,

1 45402C 20019AU  20225.43554274 -.00004105  00000-0 -28098-3 0  2256
2 45402  53.0009 273.2222 0001219  92.6611  27.8882 15.05607652    15
Epoch (UTC): 12 August 2020 10:27:10
Eccentricity: 0.0001219
inclination: 53.0009°
perigee height: 549 km
apogee height: 550 km
right ascension of ascending node: 273.2222°
argument of perigee: 92.6611°
revolutions per day: 15.05607652
mean anomaly at epoch: 27.8882°
orbit number at epoch: 1

The dashed part of the orbit path shows where the satellite is in the earth's shadow,  

DLR